Flag for Ukraine Weather past 2 weeks in Kryvyi Rih, Ukraine

Now
39 °F

Light rain. Overcast.


Feels Like: 30 °F
Forecast: 33 / 43 °F
Wind: 17 mph from Northeast

Location: Krivyy Rih / Dnipropetrovs'k

Current Time: Feb 1, 2015 at 3:21:18 PM

Latest Report: Feb 1, 2015 at 3:00 PM


Visibility: 2 mi

Pressure: 29.21 "Hg

Humidity: 93%

Dew point: 37 °F

Location of Kryvyi RihLocation

Historic Weather in Kryvyi Rih — Graph

°F

Kryvyi Rih temperature yesterday

Maximum temperature yesterday: 48 °F (at 2:00 AM)
Minimum temperature yesterday: 41 °F (at 10:00 PM)
Average temperature yesterday: 46 °F

Past Weeks' High & Low Weather Summary

 TemperatureHumidityPressure
High48 °F (Jan 31, 2:00 AM)100% (Jan 18, 3:00 AM)30.30 "Hg (Jan 18, 3:00 AM)
Low27 °F (Jan 24, 5:00 PM)60% (Jan 24, 7:00 PM)29.21 "Hg (Jan 31, 4:30 PM)
Average35 °F95%29.98 "Hg
* Reported Jan 17 2:00 PM — Feb 1 2:00 PM, Kryvyi Rih, Weather by CustomWeather, © 2014

Note: Actual official high and low records may vary slightly from our data, if they occured in-between our weather recording intervals... More about our weather records

Advertising

Kryvyi Rih weather history for previous 24 hours

 ConditionsComfort  
Time TempWeatherWind HumidityBarometerVisibility
2:00 PM
Feb 1
39 °FLight rain. Overcast.17 mph93%29.24 "Hg1 mi
1:30 PM41 °FLight rain. Overcast.15 mph87%29.27 "Hg2 mi
1:00 PM41 °FLight rain. Low clouds.17 mph87%29.30 "Hg2 mi
12:30 PM41 °FLight rain. Low clouds.15 mph87%29.33 "HgN/A
12:00 PM41 °FLight rain. Low clouds.13 mph87%29.33 "Hg2 mi
11:30 AM41 °FLight rain. Low clouds.13 mph87%29.36 "Hg2 mi
11:00 AM41 °FLow clouds.13 mph87%29.39 "HgN/A
10:30 AM41 °FOvercast.10 mph87%29.42 "HgN/A
10:00 AM41 °FOvercast.8 mph87%29.42 "HgN/A
9:30 AM39 °FOvercast.6 mph93%29.42 "HgN/A
9:00 AM39 °FOvercast.6 mph93%29.45 "HgN/A
8:30 AM41 °FLow clouds.6 mph87%29.45 "HgN/A
8:00 AM41 °FOvercast.3 mph87%29.45 "HgN/A
7:30 AM39 °FOvercast.6 mph93%29.47 "HgN/A
7:00 AM39 °FOvercast.3 mph93%29.47 "HgN/A
6:30 AM39 °FOvercast.6 mph93%29.45 "HgN/A
6:00 AM39 °FOvercast.6 mph93%29.47 "HgN/A
5:30 AM39 °FClear.6 mph87%29.47 "Hg10 mi
5:00 AM39 °FClear.1 mph87%29.47 "Hg10 mi
4:30 AM39 °FClear.3 mph87%29.47 "Hg10 mi
4:00 AM39 °FClear.3 mph87%29.47 "Hg10 mi
3:30 AM39 °FClear.3 mph87%29.47 "Hg10 mi
3:00 AM39 °FClear.6 mph87%29.47 "Hg10 mi
2:30 AM39 °FClear.3 mph93%29.47 "Hg10 mi
2:00 AM39 °FClear.3 mph93%29.50 "Hg10 mi
1:30 AM41 °FClear.6 mph87%29.50 "Hg10 mi
1:00 AM41 °FClear.8 mph87%29.47 "Hg10 mi
12:30 AM41 °FClear.10 mph87%29.47 "Hg10 mi
12:00 AM41 °FClear.15 mph87%29.47 "Hg10 mi
11:30 PM
Jan 31
41 °FClear.15 mph87%29.45 "Hg10 mi
11:00 PM41 °FClear.15 mph87%29.45 "Hg10 mi
10:30 PM41 °FClear.17 mph87%29.42 "Hg10 mi
10:00 PM41 °FClear.17 mph87%29.42 "Hg10 mi
9:30 PM43 °FClear.17 mph81%29.42 "Hg10 mi
9:00 PM43 °FClear.20 mph81%29.39 "Hg10 mi
8:30 PM43 °FClear.20 mph81%29.39 "Hg10 mi
8:00 PM43 °FClear.17 mph81%29.36 "Hg10 mi
7:30 PM43 °FClear.22 mph81%29.36 "Hg10 mi
7:00 PM43 °FClear.24 mph81%29.33 "Hg10 mi
6:30 PM46 °FPassing clouds.22 mph87%29.30 "HgN/A
6:00 PM46 °FPassing clouds.22 mph87%29.27 "HgN/A
5:30 PM48 °FPartly cloudy.22 mph87%29.27 "HgN/A
5:00 PM48 °FSprinkles. Partly cloudy.22 mph87%29.24 "HgN/A
4:30 PM46 °FSprinkles. More clouds than sun.26 mph93%29.21 "HgN/A
4:00 PM46 °FSprinkles. Mostly cloudy.31 mph93%29.24 "Hg2 mi
3:30 PM46 °FSprinkles. More clouds than sun.26 mph93%29.24 "Hg2 mi
3:00 PM46 °FSprinkles. More clouds than sun.29 mph93%29.24 "Hg2 mi
Weather by CustomWeather, © 2014

See weather overviewHow to use our weather pages